Location: Stuttgart
(48.8069°N, 9.1544°E)
Time: 04:00:12
(UTC+01:00)

ISS - Pass Details

Date: 14 February 2018
Orbit: 402 x 407 km, 51.6° (Epoch: 23 February)

Event Time Altitude Azimuth Distance (km) Brightness Sun altitude
Rises 18:24:36 0° 282° (WNW) 2,320 1.5 -7.5°
Reaches altitude 10° 18:27:30 10° 254° (WSW) 1,456 0.7 -8.0°
Maximum altitude 18:29:08 13° 224° (SW) 1,275 -0.4 -8.3°
Drops below altitude 10° 18:30:45 10° 194° (SSW) 1,451 -0.7 -8.5°
Sets 18:33:38 0° 165° (SSE) 2,306 0.0 -9.0°
